Garnett Industrial Airport (K68)
Garnett, KS
Field Elevation: 989
Lat: 38°16.64N  Long: 95°12.91W
CTAF/Unicom Freq: 122.8000
   
     For Weather-by-Phone, call 785-448-3254
Weather Advisories
4/23/2014 14:20 Z
Altimeter 29.96" Hg
Wind 130° @ 10 KT
Gusts --
Visibility 10 SM
Temperature 13° C (55° F)
Dewpoint 3° C (37° F)
Relative Humidity 51%
Density Altitude --
Condensation Altitude 6,000 feet
  Wind and Runways
Indicated Runway = 19
History
 
 
More Info
All DigiWx sites map
NOAA Forecast
 
Airport IQ 5010
(FLV) Sherman Airfield
(GRE) Greenville
 
about DigiWx
 
FAA Disclaimer: The data displayed is for advisory purposes only and is not to be used for flight planning or operations. For official data, please call 785-448-3254 to hear the current automated AWOS voice message.
  METAR K68 231420Z AUTO 13010KT 10SM 13/03 A2996